Temp
7 7 7 7 7 7 7 7 7 8 8 7 8 8 7 7 9 9 10 19 18 17 18 18 17 18 17 17 17 16 15 13 16 18 20 22 22 22 24 24 24 24 21 22 22
7 7 7 7 7 7 7 7 8 8 8 9 9 7 7 8 7 8 19 19 19 17 16 17 17 16 15 16 16 15 13 16 17 20 20 20 20 22 23 23 23 23 20 20 20
7 7 7 7 7 6 6 7 7 8 9 9 8 7 7 8 8 15 18 17 17 17 16 17 17 17 15 15 15 16 17 18 19 20 20 20 21 22 22 22 23 22 20 18 19
6 7 6 6 6 6 6 7 7 7 8 9 7 7 7 8 15 18 17 17 17 17 16 16 15 16 16 15 16 16 17 19 19 20 20 20 21 21 21 23 23 22 20 19 19
6 6 6 6 6 6 6 7 8 9 9 9 7 7 7 8 10 17 17 17 17 16 15 16 16 16 16 16 16 16 18 19 19 19 20 20 20 21 22 23 21 21 20 20 19
6 6 6 6 6 6 6 7 8 10 9 10 6 7 7 7 16 16 16 17 17 17 17 17 17 17 17 17 17 19 19 19 20 20 20 21 21 21 22 22 22 20 20 19 19
6 6 6 6 6 6 6 8 10 11 10 10 7 7 8 8 15 15 15 16 17 16 16 19 19 18 18 17 19 19 18 18 19 20 20 21 19 19 22 22 22 20 20 19 19
6 6 6 6 6 6 7 10 11 11 11 11 7 7 9 13 14 14 16 17 18 18 17 19 19 17 17 17 18 19 19 17 20 20 21 21 20 21 22 22 20 20 20 20 19
6 6 6 6 6 6 8 11 12 11 11 9 8 8 10 14 13 16 17 16 17 18 18 18 18 16 17 16 15 16 15 17 19 21 21 21 20 21 23 22 21 21 19 20 20
6 6 6 6 6 6 9 12 12 11 9 9 9 9 11 15 15 16 17 17 17 17 17 17 14 14 13 14 15 15 16 16 18 20 19 19 18 21 22 22 22 21 18 19 20
6 5 6 6 6 7 9 10 10 10 10 10 12 12 13 15 15 16 16 17 16 15 14 15 13 12 13 14 16 17 16 16 17 20 19 18 18 20 21 20 21 20 17 19 20
6 5 6 6 6 7 9 8 8 7 7 11 11 11 12 13 12 14 15 15 15 13 13 13 12 14 15 15 15 16 16 16 18 21 20 18 18 20 21 22 21 22 18 19 20
5 5 5 6 6 7 6 7 7 7 7 10 12 12 13 13 12 13 14 14 14 13 13 12 14 15 15 15 15 15 15 17 17 19 18 18 19 19 22 22 22 21 21 19 19
5 5 5 6 7 5 6 7 8 7 8 11 12 13 13 13 12 14 15 15 14 13 13 12 14 14 14 14 15 14 17 18 18 17 15 19 16 19 20 21 22 22 19 18 19
5 5 5 5 5 4 6 6 8 8 9 16 16 17 16 15 16 15 16 16 14 14 13 13 13 13 13 14 16 16 17 17 17 16 16 17 16 18 21 21 21 21 21 18 20
4 4 5 5 4 5 5 7 8 9 9 15 17 15 15 16 16 16 16 16 15 14 13 13 14 14 14 15 16 16 16 16 16 15 14 17 17 17 20 21 22 23 22 19 19
4 4 4 4 4 5 5 5 7 7 13 15 14 15 15 15 15 15 14 14 13 12 12 14 14 14 15 14 15 15 13 14 15 14 15 18 17 19 21 21 21 22 23 20 19
4 4 5 5 6 5 4 6 6 11 12 14 13 13 14 16 15 14 13 12 13 13 12 12 13 13 14 15 15 15 14 14 14 15 15 18 17 20 21 21 21 22 23 23 19
4 4 5 6 5 5 4 4 8 9 11 11 12 14 14 15 14 15 13 13 13 13 13 13 14 15 15 15 14 13 13 13 14 14 14 16 19 22 19 18 18 20 21 20 18
3 3 3 5 5 5 5 5 6 10 10 10 10 11 11 12 13 12 13 15 14 13 14 15 13 15 16 15 14 13 14 13 13 15 14 17 18 16 17 17 17 16 15 18 18
3 1 4 5 5 4 4 4 7 9 9 9 9 10 12 11 12 13 15 14 14 14 13 14 15 14 16 14 14 13 13 12 13 14 15 15 16 17 16 16 16 16 16 15 15
2 -1 4 6 3 3 2 6 8 8 9 9 9 10 10 11 11 14 14 15 15 15 14 14 13 12 14 16 16 15 14 13 13 14 14 14 15 16 16 16 16 16 16 15 15
2 1 4 5 -1 4 4 6 7 7 7 8 9 10 11 10 8 12 13 15 15 14 14 14 12 12 13 15 15 14 14 13 13 13 14 14 15 16 16 15 16 16 15 15 14
2 -1 -0 1 2 3 3 5 5 6 7 7 8 9 9 9 11 10 12 15 13 15 13 13 12 12 11 12 13 12 13 15 14 13 13 13 16 15 15 14 14 14 15 14 13
2 1 1 -3 2 4 4 5 5 5 7 7 7 7 7 8 10 9 12 12 13 13 12 11 11 12 12 12 13 13 13 14 13 13 13 15 15 16 14 14 13 15 15 14 13
1 -0 1 2 3 4 4 5 6 5 7 6 7 7 7 7 9 8 11 12 12 11 11 10 10 10 11 13 12 13 14 15 14 13 13 14 15 16 13 13 13 13 13 13 12
1 1 1 2 2 3 4 5 5 6 7 8 7 5 6 7 8 7 8 9 10 11 11 11 10 9 10 11 11 11 14 14 15 13 14 13 15 14 13 14 13 11 11 11 10
Height
819 818 816 813 812 807 802 798 796 792 788 786 783 779 776 773 765 760 754 743 743 745 746 746 749 750 752 753 752 756 772 778 764 758 746 732 737 726 723 726 724 718 716 711 714
819 817 815 813 809 807 803 797 791 789 786 782 779 776 773 769 762 752 741 740 740 744 745 745 748 750 755 753 752 758 769 758 747 741 740 738 738 731 730 728 725 723 716 712 715
820 816 814 812 808 804 800 796 791 786 782 780 777 773 770 767 763 742 741 741 741 742 743 746 747 750 756 753 752 749 743 741 738 734 736 736 733 730 731 732 725 727 720 716 717
819 815 813 810 807 802 798 793 788 783 780 776 775 774 769 769 759 739 738 739 740 741 743 745 747 752 754 753 746 751 738 736 734 733 736 735 730 728 729 721 715 714 715 714 716
817 814 811 807 803 798 793 787 782 779 776 774 773 774 772 770 753 738 737 739 740 740 742 743 746 748 751 746 745 744 736 732 729 730 731 728 730 726 721 710 711 710 711 710 711
816 813 810 805 801 794 788 784 778 774 771 770 771 772 775 772 737 735 735 737 739 739 739 740 739 740 744 743 743 730 730 727 724 724 726 728 721 724 711 705 708 710 710 706 707
814 811 807 803 796 790 783 778 773 769 766 763 766 768 768 753 736 734 733 733 734 736 737 737 737 741 740 741 730 727 732 726 724 720 722 720 726 726 706 703 706 707 707 705 704
812 809 805 800 794 787 779 772 767 764 759 758 759 765 756 736 735 732 730 729 731 731 733 735 736 739 741 733 731 730 727 737 718 717 715 720 723 708 699 699 704 702 703 702 701
809 807 802 798 791 784 775 767 762 759 755 756 760 762 748 734 733 729 728 729 729 729 730 732 735 739 738 742 746 737 744 735 726 710 714 716 718 701 693 696 698 699 700 698 697
807 804 799 794 789 782 773 763 759 759 759 759 761 765 740 731 730 728 729 728 729 728 729 732 740 743 746 748 749 746 739 734 729 715 715 721 717 698 693 693 691 691 697 695 694
806 803 798 793 789 782 774 765 768 764 761 758 751 747 735 732 730 727 728 728 729 730 737 735 746 747 743 740 735 733 733 734 725 712 719 719 714 701 691 692 689 689 689 690 688
804 801 797 792 788 783 779 779 789 792 766 750 739 737 732 736 736 726 728 732 733 739 738 741 744 737 734 736 737 736 734 727 717 708 712 716 711 694 687 685 681 675 679 681 681
802 799 796 792 786 786 784 786 785 782 777 738 731 726 723 729 733 722 725 727 732 740 740 742 733 728 731 732 734 733 734 727 723 715 712 714 706 695 677 675 671 667 667 669 672
802 800 795 791 788 788 787 784 780 779 777 739 726 719 722 723 728 716 718 723 731 736 739 741 731 731 732 732 729 733 721 719 718 723 733 706 726 697 683 676 669 667 670 670 669
802 799 798 795 795 792 791 785 780 778 776 721 716 713 715 719 713 715 716 721 730 732 738 734 732 734 733 728 722 724 718 720 717 722 721 715 724 696 678 680 672 668 665 667 661
801 799 797 796 795 792 789 784 780 783 771 726 714 719 720 715 713 715 718 719 723 730 732 730 724 725 724 718 717 719 722 720 718 722 730 712 713 697 684 674 663 656 656 660 657
800 799 796 796 794 791 789 785 790 788 739 731 728 725 720 717 716 715 721 726 733 739 740 727 721 719 717 722 718 723 734 733 732 731 718 697 705 684 673 666 662 657 649 653 652
798 797 793 792 791 792 791 790 796 756 748 736 734 726 721 713 713 715 722 729 727 728 734 732 728 718 712 715 718 719 730 729 722 717 714 695 699 681 665 660 655 645 640 637 647
797 795 789 788 788 790 795 798 773 762 751 751 738 727 724 718 720 715 721 722 720 724 732 728 719 706 707 706 715 723 726 726 724 720 722 705 682 663 666 666 659 650 640 638 639
797 794 789 788 789 791 794 788 779 762 762 758 753 743 742 734 726 725 718 709 714 716 715 716 722 705 702 708 717 724 720 726 723 717 720 697 690 699 685 679 672 667 658 645 643
798 796 789 786 789 794 795 790 777 768 765 761 757 751 738 743 732 724 713 715 713 712 714 715 715 715 704 710 712 723 719 724 718 715 711 708 703 691 693 688 683 676 665 655 653
798 808 790 791 797 796 796 783 776 771 768 766 758 754 749 746 739 723 721 710 707 708 716 716 719 724 712 696 695 703 712 716 715 715 712 712 705 692 693 689 685 681 675 665 665
800 799 789 790 811 789 787 781 778 776 773 767 759 751 744 748 758 728 720 707 709 711 715 715 722 726 711 701 699 707 709 713 713 713 708 711 703 692 692 693 691 688 685 682 681
800 806 796 792 792 790 793 782 780 773 768 765 760 755 754 748 741 740 726 713 714 710 713 713 722 726 733 722 721 718 714 706 708 711 709 708 696 698 699 702 701 698 696 694 694
798 798 797 813 792 788 785 782 777 773 764 763 760 758 760 753 741 746 725 721 717 716 717 722 727 726 725 721 718 714 713 709 711 709 709 697 696 689 701 706 711 705 703 700 703
796 799 796 794 789 787 783 780 775 779 770 763 760 758 756 755 744 746 727 723 719 721 721 726 734 733 731 716 716 712 704 698 701 705 707 702 695 688 700 705 711 713 710 708 712
793 792 794 793 791 791 784 778 777 774 763 757 758 762 756 748 743 740 736 731 728 723 725 727 732 739 731 725 723 716 699 694 689 697 696 699 690 692 698 699 706 718 718 720 723
Wind_Speed
11 14 15 16 18 19 19 19 21 21 20 22 24 26 28 30 33 25 8 8 4 3 6 6 7 5 4 3 3 4 2 5 8 8 7 3 5 5 4 4 8 3 7 5 26
13 14 14 16 17 20 22 21 21 23 22 22 23 25 28 32 28 17 5 2 5 6 3 4 3 6 2 4 3 5 5 9 6 8 7 4 7 10 6 11 10 4 4 10 28
14 14 15 17 19 20 23 26 26 24 22 23 23 22 25 25 6 6 7 10 7 2 6 3 5 5 4 4 5 6 13 6 6 7 5 5 11 2 4 11 7 7 4 8 12
14 14 16 18 21 23 25 28 27 26 24 22 22 21 21 10 4 1 8 10 10 5 5 2 3 4 5 7 7 7 6 14 6 7 5 10 8 9 5 16 9 11 11 11 12
14 15 16 19 21 24 28 31 29 27 26 24 19 16 10 2 10 6 9 8 9 3 8 5 5 4 4 4 6 8 4 8 8 8 9 11 12 14 15 19 9 6 13 16 13
15 17 19 21 23 27 31 32 30 27 26 25 17 9 3 6 5 4 4 8 5 4 5 5 4 5 5 6 7 4 9 16 13 16 11 12 15 3 16 7 5 10 16 14 14
15 18 20 24 28 31 33 30 29 27 31 22 13 6 6 17 6 14 16 10 8 7 3 4 2 1 2 5 6 5 7 8 10 4 8 5 13 7 16 4 10 13 15 13 14
15 18 22 27 32 36 33 28 29 29 21 12 8 8 8 13 12 14 7 7 10 9 12 11 9 4 4 6 5 4 3 6 4 8 7 9 22 11 12 9 12 15 12 13 14
16 19 23 29 32 37 30 28 23 11 7 7 8 5 9 7 8 5 6 4 3 4 5 4 4 6 3 3 4 3 5 4 5 8 6 8 12 9 8 6 10 10 12 13 14
15 19 24 28 33 37 28 23 8 4 8 5 4 3 7 0 3 9 5 6 2 1 2 2 2 2 0 3 10 5 4 5 5 1 4 4 10 9 9 11 10 9 11 13 15
16 20 25 29 33 29 24 8 6 3 5 7 7 8 11 7 8 4 5 4 2 4 4 0 2 8 8 6 4 6 5 7 4 5 4 8 11 12 11 7 9 13 9 15 18
17 20 23 28 34 14 12 5 7 11 13 13 21 24 31 17 7 8 3 3 4 4 1 2 6 8 5 6 7 8 11 12 11 11 4 9 13 14 14 13 9 11 10 15 14
18 18 21 27 23 12 9 9 23 22 5 11 7 7 6 18 10 8 9 6 4 5 5 5 4 2 6 8 9 11 10 9 10 5 8 11 13 8 13 5 6 6 9 9 19
16 18 18 26 5 24 3 25 26 9 5 7 5 5 6 7 6 9 10 6 3 8 4 5 4 4 6 5 7 12 7 10 8 6 4 1 5 6 11 8 4 8 7 8 11
15 15 16 15 13 11 13 28 26 1 5 1 1 8 9 5 2 2 7 3 7 5 5 6 4 4 5 6 7 7 5 6 3 3 3 4 3 7 2 7 8 7 8 10 16
13 13 14 13 15 7 24 24 4 2 6 6 4 4 4 3 1 3 3 2 4 3 4 6 3 4 7 5 6 5 9 10 5 3 6 8 6 5 6 6 5 5 8 10 13
12 12 14 13 6 20 22 8 3 3 6 7 4 6 7 3 5 5 6 7 5 4 5 4 11 5 4 3 6 9 4 3 5 4 6 7 8 11 9 9 8 11 13 9 12
12 13 17 20 21 17 8 2 3 2 6 7 7 12 7 6 6 6 6 4 6 2 1 3 5 9 7 12 5 13 6 3 4 3 2 5 5 3 6 7 12 14 15 11 12
12 12 16 19 6 4 2 3 5 4 4 9 11 4 6 6 3 4 8 5 6 11 7 3 4 2 6 5 7 4 11 2 1 4 2 3 5 2 17 17 19 13 8 9 8
7 7 7 9 5 5 2 5 4 4 8 5 3 4 4 11 7 7 7 2 4 7 3 2 4 2 3 6 6 4 3 4 2 3 3 4 2 3 13 16 16 15 9 4 5
2 3 6 5 13 1 4 4 4 8 9 4 4 5 5 9 9 3 4 3 1 3 8 3 2 6 4 5 7 3 3 2 2 2 2 1 2 1 10 12 11 12 13 11 8
2 2 7 5 1 3 5 3 2 7 5 5 5 7 9 4 7 2 4 3 4 4 4 1 2 3 7 7 11 10 7 4 2 4 2 1 3 4 9 13 10 13 15 17 16
1 3 3 3 2 2 4 6 9 13 16 5 5 6 5 2 5 9 6 4 4 1 4 3 1 3 7 4 5 3 10 9 6 1 4 3 2 5 7 12 15 13 14 16 17
1 2 3 2 1 2 4 7 6 7 10 6 9 10 12 6 3 9 5 4 8 2 7 3 2 2 2 3 2 6 11 7 8 2 2 4 0 3 5 10 13 14 10 14 15
2 3 3 2 1 2 3 5 7 4 6 7 5 3 4 4 3 10 4 2 3 3 3 3 2 1 6 7 8 11 12 11 8 6 4 3 8 9 10 6 7 10 8 13 15
2 2 1 2 4 3 5 2 8 6 6 6 5 13 5 5 4 10 2 2 2 3 2 2 1 2 4 4 8 10 11 11 13 11 11 16 12 5 11 10 5 6 9 13 12
4 3 3 2 1 2 2 5 9 12 6 9 9 10 8 11 8 8 6 3 4 2 1 2 3 2 4 6 10 7 0 6 5 11 6 11 8 8 14 14 11 11 9 11 12
Wind_Direction
337 334 333 332 329 326 326 327 327 328 329 328 329 331 329 323 321 316 234 244 260 209 217 236 254 227 174 194 189 126 224 211 202 192 236 314 356 202 290 0 337 275 165 239 171
333 331 331 329 328 325 324 321 322 325 327 328 329 328 329 329 317 270 270 57 105 209 254 205 221 148 179 212 215 174 207 216 211 226 258 324 318 317 354 323 315 275 315 135 151
326 328 328 328 327 326 324 323 322 322 324 326 327 328 330 332 297 245 91 56 23 289 246 239 248 167 202 174 215 215 237 224 227 243 257 284 281 6 298 296 234 271 238 164 159
325 322 326 328 328 327 324 326 322 319 319 323 326 328 329 324 302 99 171 356 351 282 220 196 123 184 199 215 219 258 230 236 254 247 269 265 294 283 175 261 266 264 198 168 178
326 322 324 327 326 324 323 324 320 316 317 318 318 324 335 328 252 266 247 308 342 211 211 192 162 182 201 224 230 244 268 264 260 254 251 267 251 257 281 269 267 225 177 185 188
328 323 322 325 323 323 322 320 316 313 313 314 305 307 267 277 237 303 326 310 342 214 255 221 217 209 259 236 221 247 240 250 253 261 263 265 267 151 264 276 232 176 198 192 195
323 324 325 327 328 328 326 321 316 314 312 305 279 230 239 250 260 302 295 284 274 263 261 247 146 299 264 280 235 239 256 266 250 216 241 225 279 208 253 235 214 199 211 202 208
322 325 328 331 333 335 331 321 318 318 307 287 208 181 247 261 304 304 312 271 255 255 238 248 266 216 211 275 305 267 238 250 235 213 242 174 268 270 249 237 214 207 212 206 210
326 327 330 333 335 338 330 327 322 349 349 139 127 181 262 293 279 334 336 247 231 209 236 222 195 202 287 239 317 279 248 263 286 216 222 186 267 264 274 233 242 204 209 206 220
326 328 332 335 337 341 338 327 14 91 67 101 94 277 260 275 355 310 326 268 230 132 36 143 88 200 339 144 239 237 258 245 233 311 12 276 269 271 281 279 253 249 195 207 211
331 333 333 333 337 343 357 2 5 333 8 252 244 252 287 301 327 251 2 347 64 62 174 116 160 221 221 215 250 257 253 259 256 265 296 259 269 275 292 269 260 250 189 198 210
336 333 332 333 337 349 29 51 29 300 296 258 250 250 253 282 289 286 240 186 148 193 144 16 240 243 238 239 261 274 266 266 274 274 258 281 282 287 285 260 232 250 219 198 206
335 336 335 334 339 356 357 26 342 347 269 297 245 244 238 199 232 255 172 170 167 169 198 189 220 335 229 230 241 252 254 253 260 298 268 279 280 285 276 249 275 255 233 198 185
337 339 341 338 29 340 8 339 338 347 307 278 263 251 144 149 228 207 188 139 196 197 196 241 249 247 259 245 226 249 235 266 270 278 255 94 286 260 281 290 281 275 216 196 192
332 337 338 347 321 329 324 328 329 210 321 226 192 174 159 189 161 209 171 84 185 184 139 244 194 208 217 231 232 261 359 289 279 269 221 255 253 270 231 289 280 247 250 222 201
328 334 332 337 322 335 334 323 334 60 256 313 149 194 161 238 282 121 141 103 162 190 247 241 213 213 209 218 227 268 299 278 250 216 245 224 207 235 227 229 273 258 231 198 205
326 323 317 313 284 318 332 344 71 188 334 335 4 346 277 213 205 175 166 185 176 164 240 279 238 214 164 188 186 218 267 242 224 228 234 196 208 254 304 282 257 272 276 209 201
328 319 312 294 294 304 333 65 187 232 279 355 339 300 210 195 235 189 137 193 234 156 150 214 319 164 190 203 183 202 200 223 221 231 183 264 248 214 358 346 311 260 261 273 194
330 333 303 322 311 156 95 194 216 212 327 340 323 343 346 13 9 171 194 197 208 174 189 206 255 143 174 145 135 175 210 357 316 316 25 243 270 206 0 0 352 303 265 277 200
343 317 291 324 147 140 170 240 253 319 5 338 312 17 324 339 355 348 177 212 153 193 195 230 295 278 196 118 166 167 138 179 180 224 214 231 98 12 2 357 358 355 350 350 104
5 351 358 98 141 64 228 239 315 320 351 316 342 313 340 345 319 287 346 354 197 187 143 207 171 288 127 188 173 204 180 187 228 228 229 179 166 36 4 3 359 3 24 42 70
81 353 182 18 3 192 230 258 251 287 304 289 284 272 255 334 295 359 301 169 254 182 155 156 84 277 245 238 184 186 196 176 211 173 191 45 267 57 5 10 7 30 32 51 61
316 266 334 187 169 261 306 283 283 265 269 265 289 308 11 17 315 286 311 348 20 168 165 172 123 319 317 36 43 151 181 195 214 53 231 177 235 14 13 3 19 28 39 52 61
137 320 321 54 246 160 271 269 254 300 297 301 286 275 286 270 232 292 313 3 325 336 65 73 85 116 241 293 245 314 341 274 212 196 172 219 226 87 322 347 4 3 41 61 61
185 216 212 277 255 298 264 303 292 297 280 237 289 323 348 269 294 271 276 324 11 19 51 84 123 353 280 278 278 267 254 256 262 247 232 267 226 196 177 142 338 348 39 67 64
174 178 312 295 297 12 4 286 307 347 321 296 286 329 303 272 264 285 255 314 273 337 82 23 140 41 279 316 330 291 250 244 219 247 274 255 268 132 140 131 140 15 49 54 45
216 222 111 259 17 353 259 280 298 314 289 320 315 310 287 263 268 260 276 280 272 325 104 108 116 70 279 341 326 297 356 294 211 194 174 245 254 143 166 155 153 113 100 78 58